星链-2047 (STARLINK-2047 )

导读 | 星芒AI

STARLINK-2047 是 SpaceX 星链计划中的一颗低轨通信卫星,旨在为全球用户提供高速互联网服务。该卫星采用先进推进和通信技术,具备高带宽和低延迟特性,支持偏远地区网络接入。作为星链星座的一部分,STARLINK-2047 与其他数千颗卫星协同工作,提升全球网络覆盖能力。

基本信息
目录编号:
47355
目录名称:
STARLINK-2047
国际标识:
2021-005G
轨道中心:
EARTH
卫星名称:
星链-2047
卫星全名:
星链-2047 (STARLINK-2047 )
卫星状态:
在轨 (已飞行1743 天)
发射日期:
2021-01-20 UTC
国别 :
美国 (US)
星等 :
--
轨道信息
数据来源 国际轨道数据
星历时间: 2025-10-28T10:17:28+0800
1天前
查看轨道信息
半长轴: 6925.404km
偏心率: 0.0001063
轨道倾角: 53.054°
近地点辐角 90.362°
升交点赤经 246.858°
平近点角 269.749°
近地点: 546.532km
远地点: 548.006km
周期: 95.593分钟
每日圈数: 15.063821
详细信息
固有亮度:
5
最大亮度:
2.5
卫星平台:
Starlink V1.0
覆盖范围:
全球
运营商:
太空探索技术公司
运营商所在国:
美国
制造商(研发单位):
太空探索技术公司
制造商所在国:
美国
使用方式:
暂无
卫星简介
星链(Starlink)计划是由太空探索技术公司(SpaceX)提出的一个巨型低轨卫星互联网星座项目,计划在2019年至2024年间在太空搭建由约1.2万颗卫星组成的“星链”网络,其中1584颗将部署在地球上空550千米处的近地轨道,并从2020年开始工作。该卫星仍在工作。
2D轨道图
3D轨道图
轨道高度分析图
轨道倾角分析图
轨道综合分析图
查看轨道综合分析图